Location: Marcé
(47.5801°N, 0.3280°W)
Time: 12:17:43
(UTC+01:00)

deb Explorer IX - Pass Details

Date: 04 December 2021
Orbit: 544 x 1082 km, 38.8° (Epoch: 17 January)

Event Time Altitude Azimuth Distance (km) Brightness Sun altitude
Rises 14:39:31 0° 259° (WSW) 2,773 ? 16.0°
Reaches altitude 10° 14:42:20 10° 241° (WSW) 1,831 ? 15.8°
Maximum altitude 14:45:16 19° 195° (SSW) 1,332 ? 15.6°
Drops below altitude 10° 14:48:10 10° 149° (SSE) 1,802 ? 15.4°
Sets 14:50:55 0° 131° (SE) 2,714 ? 15.1°
